Theta_e
322 321 321 321 321 321 321 321 319 319 318 317 316 315 313 312 307 304 297 299 306 305 303 305 304 299 301 300 300 298 296 295 293 293 292 291 291 293 298 302 303 304 304 306 307 307 305 305 304 303 303 303 302 302 301 300 300 300 300 300 300 299 299 299 298 298 298 298 298 298 298 297 297 298
322 320 321 321 320 320 319 319 320 319 318 316 316 315 315 314 309 309 306 306 308 309 299 301 305 298 298 299 299 297 296 294 293 293 292 291 291 293 296 299 300 302 303 304 306 306 305 305 304 303 302 302 302 302 301 300 300 300 300 300 300 299 298 298 298 297 296 297 297 297 297 297 297 297
320 319 319 320 319 319 318 318 318 317 316 316 316 315 315 313 312 311 309 305 306 309 308 302 301 300 298 298 297 295 295 293 292 293 292 291 291 290 293 296 300 301 302 303 304 306 306 305 304 303 302 302 302 301 301 300 299 300 299 299 299 298 297 297 296 295 295 296 296 296 296 296 296 297
318 317 315 315 314 315 314 313 311 312 312 313 314 314 313 312 312 311 308 305 306 305 306 303 297 297 296 295 294 294 292 292 290 293 292 290 289 290 292 293 296 298 299 301 302 303 304 303 303 303 302 302 302 301 300 300 299 299 298 298 297 296 296 295 295 295 295 295 295 295 295 295 295 295
314 313 313 312 311 310 311 309 307 308 311 310 310 310 309 308 308 307 305 304 304 304 292 294 293 293 294 291 293 293 291 290 291 290 291 290 289 289 289 290 292 295 298 299 301 302 302 301 301 301 301 301 300 300 299 299 298 297 297 296 295 294 294 294 294 294 294 295 294 294 294 294 294 294
308 308 308 307 307 307 308 306 306 307 306 305 305 305 304 306 307 306 304 302 302 302 298 294 291 293 294 293 291 292 291 291 289 289 289 288 288 287 288 288 289 293 296 297 299 300 300 299 299 298 298 299 299 299 298 297 296 295 295 294 293 293 293 293 293 293 293 293 294 293 293 293 293 294
308 306 306 307 306 304 304 304 304 303 303 303 304 305 303 302 303 300 300 299 296 298 298 297 296 292 291 293 291 290 291 291 289 289 289 287 287 287 288 287 288 290 293 295 297 298 298 298 298 297 297 297 296 295 295 295 294 294 294 293 292 292 292 292 292 292 292 292 293 292 292 292 293 293
305 305 303 303 303 300 301 301 300 301 301 301 301 300 299 298 299 296 293 297 298 294 297 295 293 290 290 289 290 290 289 288 288 289 289 288 287 287 286 286 286 287 291 293 295 295 296 296 296 296 296 295 295 294 294 293 293 293 292 291 291 291 291 291 290 290 290 291 291 291 291 291 292 292
303 302 302 302 300 299 299 297 296 298 296 297 295 296 295 293 293 292 292 292 293 294 294 294 290 289 290 290 290 288 288 288 287 286 286 286 286 286 286 285 285 286 288 290 292 293 294 294 295 295 295 294 294 293 293 292 292 292 291 291 290 290 289 289 289 289 290 290 290 290 291 291 291 291
299 300 299 299 298 298 298 299 298 296 296 294 294 293 292 291 291 292 291 291 292 293 294 293 294 291 292 289 288 287 287 287 286 285 285 285 285 285 284 284 284 284 284 285 288 290 292 293 293 293 294 294 293 293 292 292 291 291 290 290 289 289 289 289 289 289 289 289 290 290 290 290 290 290
297 297 297 296 295 297 297 299 298 295 294 293 293 294 292 291 291 291 291 291 292 292 293 293 293 293 291 290 290 285 286 287 287 286 286 285 285 284 283 283 284 283 283 285 286 288 289 289 290 291 292 293 292 292 291 291 291 290 290 289 289 288 288 288 288 288 289 289 289 289 289 289 289 289
293 293 293 293 295 296 296 297 297 294 294 293 293 291 291 291 292 291 290 290 291 292 292 292 291 290 290 287 284 284 284 284 285 285 285 285 286 284 283 284 284 284 283 283 284 285 286 287 289 289 290 290 291 290 290 290 289 289 289 288 288 287 287 287 288 288 288 288 288 289 289 289 288 289
290 291 292 292 292 293 291 290 292 293 294 295 293 291 291 291 292 292 292 291 290 291 291 291 290 289 289 288 286 285 285 286 289 286 284 284 285 285 284 284 284 283 283 283 283 283 284 284 285 286 286 287 288 288 288 288 288 288 288 287 287 286 286 287 287 288 288 288 288 288 288 288 288 288
290 291 291 291 288 288 287 288 289 290 291 291 295 293 292 291 291 290 289 289 290 290 290 291 291 290 290 290 288 288 288 288 286 284 284 283 284 283 283 283 283 283 282 282 281 282 283 282 282 283 283 284 284 284 285 286 286 286 287 287 287 286 286 286 287 287 287 288 288 288 288 287 287 287
290 289 290 290 288 287 287 288 288 290 290 290 291 291 290 291 292 289 289 290 290 291 290 291 290 290 290 291 290 288 288 286 285 285 283 283 282 282 281 282 284 283 281 281 280 281 283 282 280 282 282 282 282 282 283 284 285 286 286 286 286 286 286 287 287 287 288 288 288 287 287 287 286 286
290 290 289 289 289 289 290 290 289 289 289 289 289 290 289 289 290 291 291 290 290 288 290 290 290 289 290 290 289 288 285 285 283 282 282 282 281 281 280 281 281 283 281 281 280 280 283 282 281 280 281 282 282 281 282 284 285 286 286 286 286 286 287 287 287 287 287 287 287 286 286 286 286 286
290 289 289 289 288 288 285 287 288 288 288 287 288 288 288 288 290 291 291 291 292 289 289 289 289 290 289 288 287 285 284 283 283 281 281 281 281 281 281 282 283 282 280 280 279 279 281 281 280 280 281 282 281 281 282 284 285 286 286 287 286 287 287 287 287 287 287 287 286 286 286 285 285 285
290 290 290 289 288 287 286 287 287 287 286 286 287 287 287 287 286 288 289 289 288 289 290 289 287 289 287 286 285 282 284 282 281 281 281 281 280 280 280 282 282 281 279 280 279 278 280 280 280 279 281 282 281 281 281 283 284 285 286 286 287 287 286 286 287 286 286 286 285 285 285 285 285 284
291 291 289 289 288 286 286 286 286 286 286 286 285 285 285 285 285 285 286 287 288 287 287 288 288 287 284 284 283 282 284 283 283 283 281 281 281 280 281 281 280 280 280 279 279 277 279 277 278 279 280 281 280 281 281 283 284 285 286 286 286 286 286 286 286 286 285 285 285 284 284 284 284 284
289 288 288 288 287 286 286 286 287 286 286 285 285 285 284 284 284 284 284 286 286 286 286 285 284 284 283 283 283 283 283 284 283 282 281 281 280 280 280 279 279 280 281 279 278 277 278 277 276 278 280 279 278 279 279 281 283 284 285 285 286 286 286 286 285 285 284 284 283 283 283 283 283 283
287 287 287 286 286 285 285 286 288 288 286 284 283 283 282 282 283 284 283 285 286 287 286 286 286 286 286 286 287 288 288 286 283 281 281 280 280 279 278 279 279 279 278 279 278 277 276 277 276 276 277 277 277 278 279 278 279 281 283 284 285 285 285 285 285 284 283 283 283 282 283 283 282 282
286 285 285 285 285 285 285 286 288 288 285 282 281 281 280 279 279 281 281 281 282 285 285 286 286 286 286 286 286 286 286 287 285 282 280 279 279 279 278 277 278 278 277 277 278 275 276 274 274 275 275 275 275 275 275 277 277 278 279 281 283 284 284 284 283 282 282 282 282 282 282 282 281 279
284 283 284 284 284 285 285 287 288 288 285 282 281 280 279 278 278 281 280 280 279 279 278 279 281 281 281 282 283 283 284 284 284 283 281 279 279 278 278 277 276 276 277 275 277 275 275 275 276 274 275 275 276 271 272 274 275 276 277 277 277 279 280 280 280 280 281 281 281 280 281 281 280 278
282 282 282 283 285 286 286 287 288 288 286 284 282 281 279 278 280 281 277 277 279 278 278 277 278 279 279 279 280 279 281 281 282 283 282 280 279 278 277 276 276 275 276 276 277 275 275 274 275 274 275 273 273 276 275 274 276 275 275 275 275 277 277 278 278 278 278 279 279 279 279 279 279 277
283 282 282 282 284 287 287 288 288 288 288 285 282 281 280 280 281 279 277 278 279 276 275 275 276 277 276 277 277 278 278 279 279 279 280 279 279 278 277 277 276 276 277 276 279 275 275 274 273 274 274 274 275 274 276 275 274 275 275 273 273 274 274 274 274 274 275 276 277 277 277 278 279 278
284 283 282 282 283 286 286 287 288 288 288 286 282 282 285 285 284 279 277 276 276 276 276 276 276 276 276 276 277 277 277 278 278 278 277 278 278 278 277 278 276 275 276 277 281 277 276 275 276 274 275 273 273 275 273 274 276 274 272 273 274 273 272 273 273 273 272 272 272 273 275 277 278 278
284 282 281 280 283 285 286 286 288 288 288 286 284 286 287 287 285 279 276 275 275 276 276 276 276 276 275 277 277 277 278 278 277 277 277 277 276 276 276 277 277 277 278 277 276 277 277 275 277 275 273 274 273 273 273 272 273 274 273 273 272 273 273 273 272 272 273 272 272 274 275 276 276 277
283 281 281 279 283 285 286 287 287 288 285 285 287 287 287 286 281 278 277 277 277 277 277 277 277 278 277 276 277 278 278 278 278 277 276 276 275 276 276 274 275 275 274 274 274 275 275 275 275 276 275 273 271 271 270 273 274 274 273 274 273 273 272 272 272 272 273 272 271 271 271 272 273 273
281 282 282 283 284 285 286 286 286 286 286 286 285 284 281 279 278 279 279 278 279 278 277 277 277 278 278 278 278 278 278 277 276 276 276 276 275 275 275 274 274 274 273 273 273 273 273 274 274 274 274 274 272 272 272 271 272 272 273 272 271 273 273 273 272 272 272 271 271 271 271 271 271 273
283 284 284 285 285 284 282 280 278 280 281 281 280 279 277 275 277 280 280 279 278 278 277 277 277 278 278 278 278 277 277 277 277 276 275 275 275 275 275 274 274 272 272 271 272 272 272 272 273 273 273 273 273 272 272 271 271 272 273 272 272 273 275 273 272 272 271 271 271 271 271 271 271 271
283 283 283 282 281 281 280 280 280 278 278 276 275 273 274 276 278 279 279 279 278 278 278 278 278 279 278 277 277 277 277 276 276 276 275 275 274 274 274 273 272 272 274 271 270 270 270 270 270 270 271 271 272 273 273 272 271 271 272 273 272 269 272 273 272 271 271 271 270 270 270 270 271 272
280 280 281 280 277 276 275 275 273 273 272 273 273 273 272 273 275 278 280 280 279 278 278 278 278 277 277 276 276 276 276 276 276 275 274 273 273 273 272 271 272 272 271 272 272 270 269 269 269 271 271 272 270 271 272 271 271 271 271 272 272 272 273 272 272 272 271 269 269 269 270 270 270 271
275 276 276 275 275 275 274 274 274 273 274 272 272 272 273 272 272 274 276 276 277 277 277 277 276 276 276 276 276 276 275 275 274 273 272 272 272 272 273 272 272 271 270 271 272 272 270 269 268 270 271 270 270 270 270 268 270 271 270 271 271 271 272 273 272 271 270 269 269 269 269 269 270 270
277 276 275 275 275 274 274 274 274 274 274 274 273 273 274 272 273 272 273 274 274 275 276 276 275 275 275 275 275 275 274 274 274 273 274 272 272 272 272 271 271 272 271 271 271 272 271 269 268 269 268 269 270 271 270 269 268 270 270 270 270 270 271 272 271 270 270 269 268 267 267 268 270 271
276 274 273 271 273 273 274 274 274 274 274 273 273 272 272 272 273 272 272 272 272 272 273 274 275 275 275 274 274 274 274 273 274 273 274 273 272 272 271 271 271 271 271 271 271 272 272 271 270 270 270 271 269 271 274 271 268 269 269 270 270 270 270 271 270 269 268 268 268 266 266 267 268 270
275 275 273 272 273 274 274 274 274 274 274 275 274 273 272 273 272 272 272 272 271 272 272 273 273 273 273 274 274 274 274 274 273 273 273 273 272 272 272 271 271 271 271 271 271 272 271 271 270 269 268 268 267 267 268 275 273 270 269 269 270 269 269 269 269 268 268 267 267 266 265 266 268 269
275 275 275 274 274 274 274 274 274 275 275 274 274 273 273 273 272 272 273 273 271 272 273 274 274 274 274 274 274 274 273 273 272 273 272 272 272 272 271 271 271 271 271 271 272 271 271 270 270 269 268 267 266 265 267 271 273 275 271 270 270 270 269 268 267 267 267 267 266 266 266 266 267 269
275 276 275 275 274 274 274 274 275 274 274 274 273 272 272 272 272 271 271 272 273 273 274 274 274 274 274 274 273 273 273 272 272 271 271 271 270 270 271 270 270 271 271 271 271 271 271 271 270 269 269 267 266 266 266 269 270 272 275 273 270 271 269 268 267 268 267 267 266 267 267 267 268 268
276 275 275 274 274 274 274 274 274 274 273 272 272 273 273 273 274 274 274 275 275 275 274 274 274 274 273 273 273 272 271 271 270 270 270 270 271 270 270 270 270 270 270 269 270 271 271 270 270 270 269 268 267 267 268 268 268 271 272 274 273 271 270 269 268 268 267 267 267 266 267 268 269 270
275 275 275 274 274 274 274 274 274 274 273 274 274 274 274 273 273 273 273 273 273 273 273 273 273 273 273 273 272 272 271 271 271 271 271 271 271 271 270 270 269 269 269 269 269 269 270 270 270 270 270 270 271 271 270 269 270 270 269 270 273 272 271 270 268 268 267 268 266 266 266 267 266 266
273 273 274 274 274 274 273 273 272 272 271 271 270 271 270 270 271 271 271 272 271 271 271 271 271 271 272 272 271 271 270 271 271 271 271 270 270 270 269 269 268 269 268 268 268 268 269 270 270 272 272 271 271 270 269 267 266 267 268 269 271 272 273 273 271 269 268 266 266 266 265 265 265 265
272 272 272 272 272 271 271 269 269 268 268 268 268 268 269 270 270 271 270 270 269 269 269 269 269 269 269 269 269 269 269 269 269 269 269 268 268 268 268 269 268 268 268 267 268 268 270 268 268 268 268 268 269 266 265 265 265 266 267 266 267 271 272 272 273 273 270 268 267 265 265 265 265 265
270 270 269 269 269 268 267 267 267 267 267 267 267 268 268 268 269 268 267 267 267 266 266 266 266 267 267 267 268 268 268 267 268 268 268 268 268 268 268 268 268 268 268 268 269 269 269 269 267 267 268 268 267 267 265 266 266 266 266 266 267 267 268 270 271 273 274 273 272 270 268 267 265 264
268 267 267 267 266 266 266 266 266 266 266 266 266 267 267 266 266 265 265 265 264 264 264 264 265 265 265 266 266 265 266 267 267 267 267 268 268 268 268 268 268 267 268 268 267 268 268 268 267 266 266 266 267 266 265 265 265 266 266 266 265 265 266 267 267 270 272 273 274 273 273 272 272 272
266 266 265 265 265 265 265 265 265 265 264 264 265 265 265 265 264 264 263 263 263 263 263 263 262 263 263 263 263 263 264 265 266 265 266 266 266 267 267 267 266 266 266 267 266 266 267 267 266 266 266 266 266 265 266 266 265 265 265 264 264 265 265 265 265 265 267 268 272 274 274 273 273 274
Wind_Speed
11 10 11 9 9 9 9 9 8 8 7 7 6 6 7 6 8 5 2 5 6 3 7 5 2 5 6 7 6 7 8 9 10 8 8 9 9 10 15 18 18 17 18 19 20 20 20 19 19 18 18 17 16 16 15 14 13 13 13 13 12 11 11 11 12 12 12 13 13 14 15 15 16 18
8 9 8 8 8 8 8 9 9 8 7 7 7 7 7 8 10 8 8 6 7 6 2 5 4 4 7 6 6 6 6 8 10 7 7 9 9 10 15 18 20 20 20 19 19 20 21 20 19 18 18 18 17 16 15 14 14 14 14 14 13 11 11 11 12 11 12 13 14 14 15 16 16 18
7 8 8 8 8 8 8 8 7 7 7 7 7 7 7 7 9 9 7 7 3 4 6 6 5 3 3 4 4 5 3 5 9 6 7 8 8 13 13 17 18 17 18 19 19 20 20 20 19 19 18 18 18 17 16 15 14 14 14 14 13 11 11 12 11 12 13 13 14 14 15 16 17 18
7 7 7 7 7 6 5 5 4 4 5 5 6 7 7 8 8 8 7 9 9 4 4 2 0 1 0 1 3 4 2 2 8 5 5 6 9 8 6 12 14 15 18 19 17 18 18 19 19 19 19 19 18 17 16 15 15 15 14 14 13 11 12 12 12 12 13 13 13 14 14 15 16 18
6 7 7 6 5 4 5 4 3 4 4 5 5 5 4 5 5 5 6 7 8 3 1 1 2 2 4 3 3 4 4 4 5 6 5 6 6 6 6 7 14 17 16 15 14 16 17 17 17 18 18 18 18 17 16 16 15 14 14 13 11 12 13 13 13 13 13 13 13 14 14 14 15 17
5 5 6 5 5 5 6 4 4 5 5 4 4 5 5 6 6 4 4 5 4 6 2 2 0 1 1 3 3 6 6 6 4 5 5 4 5 4 4 5 6 13 13 13 15 16 16 15 15 16 16 16 16 16 15 15 14 14 13 12 12 12 13 14 14 13 13 14 13 13 13 14 15 17
5 5 6 6 5 4 4 5 5 4 4 3 4 6 4 5 5 2 4 3 4 5 6 2 2 1 2 4 3 3 3 2 3 4 4 3 2 3 5 4 4 8 13 15 16 15 15 16 16 16 15 15 15 15 15 15 15 13 13 13 13 13 14 15 14 14 14 14 13 13 14 14 16 17
5 6 5 5 5 4 4 4 4 4 4 4 4 4 4 5 5 2 3 4 4 4 4 2 3 2 3 2 0 0 0 1 1 2 1 3 4 4 4 4 5 6 11 14 15 15 16 16 15 16 16 16 16 16 16 15 15 15 14 13 13 14 15 15 15 15 14 14 14 14 13 15 16 17
5 5 5 4 4 3 4 4 4 4 4 5 4 5 4 3 2 2 2 2 3 4 6 4 2 1 1 1 0 1 2 1 1 1 3 4 4 5 4 4 4 4 9 12 13 14 15 16 16 17 17 17 16 16 16 15 16 15 14 15 15 15 15 16 15 15 14 14 14 14 14 15 16 16
4 4 4 4 3 3 4 4 4 3 5 4 5 4 3 3 3 3 3 3 4 5 6 5 5 2 3 1 1 1 2 2 2 3 4 3 4 4 5 5 4 3 3 4 6 10 13 16 17 17 17 17 17 16 17 17 16 17 16 16 15 15 15 15 15 15 15 15 15 15 15 16 16 16
4 4 3 3 3 4 4 5 5 5 5 5 4 5 4 4 5 4 4 5 6 6 5 4 3 3 1 1 2 1 2 3 4 4 3 4 4 5 6 6 4 3 4 6 10 10 7 6 7 12 16 17 18 18 17 17 18 18 17 15 14 14 15 15 16 16 16 15 15 16 16 16 16 17
3 3 3 3 4 5 5 5 5 5 6 4 4 3 4 4 5 4 4 4 4 5 4 5 3 3 2 1 1 1 2 2 3 5 4 5 4 3 4 6 5 3 5 6 5 7 8 9 12 15 16 18 19 18 16 17 17 16 16 13 13 14 15 16 17 17 16 16 16 16 16 15 16 17
2 3 3 3 3 5 5 7 7 6 5 4 4 3 4 5 5 5 5 5 6 4 4 4 2 2 3 3 3 3 3 5 5 1 4 3 3 1 2 4 5 4 4 4 4 7 7 6 8 8 8 10 12 14 14 12 13 16 15 14 15 16 16 17 17 17 17 16 16 16 16 15 16 16
2 3 4 4 5 6 7 7 7 7 7 6 5 5 5 6 6 4 4 4 4 3 3 4 3 3 4 5 5 5 5 3 1 2 2 3 1 1 3 4 4 5 6 5 6 7 4 5 6 6 8 4 4 6 5 7 5 10 15 16 16 17 17 17 17 17 17 16 16 16 15 16 16 16
5 4 4 4 5 5 4 5 6 5 5 6 6 5 7 6 7 5 5 4 4 4 5 4 3 5 7 7 4 4 3 2 3 2 2 2 1 3 2 5 1 2 5 4 3 6 2 3 6 6 7 4 3 5 8 12 15 16 16 17 17 17 17 17 17 17 17 17 16 15 15 16 16 17
6 5 5 4 4 4 5 4 3 2 2 2 2 3 3 5 5 6 5 4 4 4 5 5 5 3 6 4 2 2 1 2 1 2 2 2 3 3 3 2 4 1 2 3 2 4 1 2 4 6 7 4 4 6 9 14 17 18 18 17 17 17 17 17 17 17 17 16 15 15 15 16 16 17
6 6 6 5 4 3 4 4 3 4 3 2 3 3 3 3 5 5 4 4 4 2 4 4 4 5 2 3 3 2 2 1 1 1 2 2 2 3 3 5 3 1 2 0 2 4 2 2 4 5 5 4 4 5 10 14 15 16 16 16 16 17 17 17 16 16 16 15 15 15 15 16 16 17
7 7 7 6 6 4 4 3 4 4 5 4 3 2 2 2 2 3 4 3 3 3 3 3 3 1 2 2 1 1 2 2 1 1 2 2 2 3 4 3 3 1 2 2 1 3 2 2 1 4 3 1 4 5 7 12 13 14 15 15 16 16 16 15 16 16 15 14 14 14 15 15 16 16
7 7 6 6 6 5 4 4 6 5 5 4 3 3 2 1 0 1 1 1 1 1 1 3 3 2 1 2 2 1 2 3 3 1 1 1 1 1 1 1 1 1 3 2 1 4 1 1 1 3 3 1 2 3 6 11 13 13 14 14 14 14 14 15 15 14 13 13 13 13 14 15 16 16
5 6 6 6 6 6 6 6 8 5 4 3 4 4 3 1 1 1 2 3 2 1 1 1 2 2 2 3 3 2 2 1 1 1 1 1 1 1 2 3 0 2 0 2 2 3 1 1 1 2 1 1 3 3 3 7 11 11 12 13 13 14 14 13 12 11 11 11 12 13 14 15 16 16
5 6 6 7 7 6 6 6 8 8 6 4 5 5 4 2 1 0 1 2 1 1 2 2 2 3 3 3 4 4 4 2 2 1 0 1 0 1 3 3 1 2 1 1 3 1 4 1 1 3 1 2 4 4 2 1 4 8 10 12 12 12 12 12 11 10 10 11 12 13 14 15 15 17
4 5 7 6 7 6 5 7 8 9 7 5 5 5 6 5 3 0 0 0 2 3 4 5 4 6 7 7 7 7 8 8 4 0 1 1 0 1 1 3 2 3 2 1 2 1 2 1 1 2 1 2 2 2 1 2 2 3 5 7 8 9 10 8 8 9 10 11 12 13 14 14 14 10
3 3 4 7 6 5 6 8 7 9 6 4 5 5 6 5 5 3 2 2 1 0 1 2 3 4 5 4 4 5 9 10 5 1 1 1 0 2 2 3 3 5 1 1 2 1 1 2 1 0 4 2 0 1 1 1 1 1 1 1 2 6 4 4 6 9 10 11 12 13 13 13 12 7
4 4 4 5 7 8 8 8 8 9 9 6 4 4 4 6 5 4 3 2 2 1 2 2 2 2 3 2 4 3 5 4 6 5 3 1 0 1 2 2 2 4 2 0 3 1 1 0 2 1 1 4 4 0 0 1 1 1 1 1 1 2 5 6 5 8 10 11 12 12 12 12 12 7
6 4 4 4 6 9 9 9 9 10 11 7 5 4 4 3 6 6 3 2 4 3 3 3 2 2 2 2 2 2 2 2 2 2 2 1 0 0 1 3 3 5 4 1 4 0 2 0 1 1 2 1 5 5 3 1 1 1 0 0 1 2 1 2 2 3 6 9 10 11 11 11 12 10
6 7 7 5 6 8 9 9 11 11 12 11 6 5 5 7 11 5 3 3 3 3 2 2 2 2 3 3 2 2 2 1 2 1 0 0 0 0 1 3 4 5 5 2 3 2 4 5 6 6 5 4 8 8 10 10 5 1 0 0 1 2 2 2 2 3 2 2 2 4 7 11 11 12
6 5 5 5 7 8 8 9 10 11 11 8 5 8 9 10 11 8 4 4 4 3 2 3 3 2 2 2 2 1 2 1 1 1 0 1 0 1 1 1 2 4 5 4 3 3 6 7 5 6 7 7 9 9 9 8 6 1 1 1 2 2 2 2 3 3 2 2 3 7 9 10 11 10
7 7 7 5 7 8 8 10 11 9 7 6 9 10 10 11 10 6 4 4 4 3 3 3 3 3 1 0 1 1 1 1 1 1 1 2 1 1 2 2 2 2 3 3 2 2 4 5 6 6 6 7 7 7 8 8 6 7 8 4 2 3 2 2 3 4 3 2 2 3 3 4 3 3
7 7 9 9 9 9 10 12 11 9 10 11 9 9 9 7 5 5 4 4 4 4 3 3 2 1 0 0 0 1 1 0 1 1 1 1 0 1 1 2 2 4 4 3 2 2 2 4 6 6 6 6 6 8 8 10 9 7 7 9 9 4 1 3 3 3 3 2 3 3 3 3 4 4
10 12 11 11 11 10 9 8 6 6 5 9 10 10 8 7 6 6 6 5 5 4 3 3 2 1 1 1 0 1 1 1 2 1 1 1 1 1 1 2 3 3 3 3 2 2 2 3 4 4 5 6 7 7 8 9 9 7 7 7 10 10 5 1 3 2 2 3 3 3 2 2 3 4
8 10 8 7 9 9 11 10 9 7 7 7 5 6 6 6 6 6 6 6 5 5 4 3 3 2 2 1 1 1 1 2 1 1 0 0 1 0 1 1 3 2 5 3 2 1 2 2 2 2 4 6 6 7 8 8 9 8 7 7 7 7 7 4 3 2 2 3 2 3 3 3 3 4
7 8 9 11 8 7 7 5 3 2 3 3 3 4 5 5 4 6 8 8 6 5 5 4 4 3 3 1 1 0 1 1 1 1 0 1 1 1 0 2 2 2 3 4 4 2 0 2 2 2 3 5 6 7 6 7 8 9 8 7 7 8 8 8 7 7 1 1 3 5 5 5 5 5
7 7 8 7 7 6 7 6 5 4 4 3 4 5 5 5 6 5 4 6 5 5 5 4 4 3 2 1 0 1 2 2 1 0 0 1 1 1 1 2 3 3 3 4 3 4 3 2 1 2 3 3 5 5 7 6 7 7 7 8 7 8 7 7 6 6 0 2 5 5 6 5 3 4
9 8 8 7 8 8 7 7 6 6 5 6 4 3 3 4 4 5 5 5 5 5 5 5 4 3 3 1 1 1 2 2 1 1 2 1 1 1 2 3 4 3 3 4 4 4 2 3 1 1 1 3 4 6 6 6 8 8 6 6 6 7 7 5 5 2 2 4 4 6 7 6 3 1
9 6 8 8 6 7 6 6 6 6 5 6 5 5 4 3 5 4 4 3 4 4 4 4 3 3 3 2 2 2 1 1 1 0 0 1 1 1 2 3 4 6 5 6 5 4 3 3 1 3 3 3 2 3 9 10 5 7 5 5 5 5 6 5 3 2 1 3 3 5 6 6 4 1
6 6 6 9 6 6 7 6 6 6 6 6 6 6 5 4 3 5 4 4 4 3 3 3 2 2 2 1 1 1 1 0 1 1 2 2 2 2 2 3 4 5 5 5 5 4 3 3 3 4 4 5 5 6 7 3 10 5 4 5 2 1 2 2 2 1 2 4 3 3 4 5 5 1
6 5 6 6 7 7 6 7 6 6 6 6 5 3 5 5 3 3 3 4 3 3 3 2 1 1 1 1 1 0 0 0 1 2 2 2 2 2 3 3 4 5 4 5 3 4 2 3 4 5 4 5 6 6 7 3 4 7 6 4 6 2 1 2 1 2 1 2 4 3 4 4 5 2
7 7 8 6 6 6 6 6 6 6 6 6 5 3 3 3 3 4 4 3 3 2 3 2 2 2 2 1 2 1 1 0 0 1 2 2 2 3 4 3 4 4 5 5 4 3 3 4 5 4 4 5 6 8 8 4 4 3 2 3 5 7 2 2 5 5 2 1 2 3 3 4 5 2
7 8 7 7 6 6 6 6 6 6 5 4 4 5 5 4 4 3 4 3 3 3 3 3 2 2 2 1 1 1 0 0 1 1 2 2 2 2 3 4 4 4 4 5 5 5 3 3 3 4 4 4 5 6 8 6 6 7 6 10 6 5 5 4 5 5 2 2 1 1 3 3 5 7
7 6 6 6 6 6 6 6 5 5 4 4 4 4 4 5 4 4 4 4 3 3 4 3 3 2 1 1 2 1 1 2 2 2 2 2 2 2 2 3 4 4 4 5 5 5 5 4 3 3 4 6 7 5 3 4 5 3 2 5 8 7 7 4 4 3 2 2 1 1 2 1 1 0
6 6 6 7 6 6 5 5 5 5 5 5 4 4 3 2 3 3 3 3 3 2 2 2 2 2 2 2 2 1 0 1 2 2 2 2 2 2 4 5 4 4 4 5 5 4 5 4 4 6 6 4 3 2 4 5 7 7 4 3 6 7 8 7 4 3 2 1 1 2 1 2 1 2
7 7 7 6 7 6 6 5 4 4 3 3 3 3 3 3 3 5 4 4 4 4 4 4 3 3 3 2 2 2 1 1 2 2 3 3 3 4 4 4 4 4 4 5 5 5 3 3 3 3 2 2 4 4 5 5 7 7 5 1 3 5 6 7 6 7 4 3 1 0 0 0 0 1
7 7 7 6 6 5 4 4 3 3 3 3 3 3 3 4 4 3 2 3 3 3 3 2 2 2 1 1 1 1 1 1 2 3 3 4 4 4 4 4 4 4 4 5 5 5 5 5 3 2 2 2 3 4 5 6 6 6 6 5 3 3 4 5 8 7 7 11 8 3 2 1 1 1
6 6 5 5 4 4 3 3 3 3 3 3 3 3 3 4 4 3 3 2 2 2 2 2 2 2 2 2 2 2 1 1 2 3 3 3 3 3 4 4 4 4 5 5 5 5 4 5 2 0 2 4 4 4 6 6 6 6 6 5 2 2 3 3 3 5 4 4 8 9 7 8 7 7
5 5 5 4 4 4 4 4 3 3 3 3 3 3 3 4 4 3 3 3 3 3 3 2 2 2 2 2 1 1 1 2 2 3 3 3 4 4 4 4 4 5 5 4 5 5 4 4 2 0 2 3 2 3 5 5 6 5 5 4 6 3 2 2 2 3 3 2 5 7 8 6 5 8
Wind_Direction
225 232 228 226 230 233 229 228 222 226 225 227 230 220 235 237 260 268 229 228 257 226 205 219 224 191 205 211 199 200 208 214 203 201 208 215 218 208 213 218 221 225 227 229 227 224 227 226 230 233 237 237 238 240 243 247 254 258 263 266 270 275 280 284 285 289 294 297 299 304 308 310 311 310
222 226 226 225 235 234 229 226 221 222 221 221 221 222 222 221 236 243 260 256 215 252 224 225 220 178 211 203 199 199 210 201 196 207 203 212 209 198 209 214 215 217 221 225 227 226 226 226 229 233 237 240 240 242 243 245 249 255 258 264 270 275 277 277 281 287 290 291 295 300 304 307 309 308
218 223 227 228 236 231 227 225 214 213 213 220 220 226 222 228 227 240 240 261 242 217 221 221 238 226 196 202 200 173 207 190 198 204 204 214 203 204 216 216 217 217 223 227 227 226 226 227 229 232 237 240 241 243 245 246 252 255 260 265 267 269 270 273 277 280 283 286 291 297 301 303 306 307
222 227 235 236 236 235 232 225 211 210 216 218 224 224 224 229 230 230 236 243 258 212 220 219 221 0 71 166 219 234 95 185 198 210 204 209 207 210 219 225 225 224 227 229 229 228 229 231 233 235 238 240 243 246 248 250 253 257 260 262 261 262 265 269 270 273 279 284 289 293 296 299 304 307
225 227 232 235 228 219 221 216 215 222 229 232 240 242 235 242 239 220 229 244 260 274 53 83 173 193 152 197 191 203 169 197 205 208 203 195 205 208 209 217 224 225 227 229 229 230 230 233 235 237 240 242 245 248 251 254 255 257 258 258 257 262 266 265 267 271 277 281 284 288 294 298 303 306
220 228 227 227 219 206 210 206 216 225 228 223 238 244 231 241 243 221 217 237 245 260 289 194 314 40 275 208 168 197 196 209 179 206 205 208 205 211 219 227 231 230 227 229 231 230 230 233 236 239 242 242 245 248 249 250 250 250 251 250 254 258 261 262 265 270 272 274 279 285 291 298 302 304
224 224 224 229 220 212 210 214 218 216 229 220 221 241 223 230 243 204 196 196 228 246 262 261 176 184 201 218 201 210 223 213 170 208 215 208 206 225 228 231 230 232 230 228 229 230 233 236 237 238 239 239 243 246 247 248 250 248 246 249 253 257 258 259 261 264 266 271 277 283 290 296 300 302
219 218 216 227 219 207 206 219 215 220 221 215 223 239 238 214 230 191 161 197 216 219 249 270 203 193 204 228 46 291 17 90 182 227 216 195 218 212 225 233 228 232 236 233 232 233 236 238 238 239 240 239 241 242 243 245 245 246 248 247 249 253 256 258 260 262 266 271 275 281 288 293 298 300
205 200 200 215 210 200 208 226 217 213 208 214 201 221 232 219 213 160 168 189 179 211 232 259 267 292 312 16 46 128 169 130 197 188 219 216 218 214 222 221 219 231 238 245 241 238 240 241 240 242 242 241 242 243 242 242 242 243 243 243 243 250 255 259 261 265 267 269 273 278 283 290 294 297
183 187 199 209 197 191 203 229 233 221 221 197 198 207 207 178 164 172 189 177 194 208 233 226 262 233 227 196 196 187 190 209 227 216 216 228 218 215 230 221 204 195 206 225 243 245 243 240 242 245 244 242 243 242 240 240 240 238 237 238 243 251 258 262 265 267 268 269 272 276 283 290 294 296
181 183 186 192 183 193 205 221 227 221 213 197 207 202 189 180 166 187 192 188 199 208 216 228 227 255 246 233 246 141 214 222 227 248 240 240 206 208 220 244 204 176 222 239 242 247 248 248 248 248 246 243 243 241 241 241 239 238 240 242 248 257 263 266 267 266 266 269 274 280 285 289 292 295
183 175 174 187 195 197 205 206 225 213 213 189 203 199 170 168 177 193 188 188 200 207 213 229 217 203 194 136 128 180 193 222 232 214 220 250 240 203 216 231 231 185 205 229 234 245 251 247 248 249 246 245 244 243 245 246 246 246 247 245 251 260 266 266 264 263 266 271 276 280 283 287 290 294
179 162 174 183 198 205 207 208 206 214 210 177 195 196 168 178 190 190 186 194 189 211 207 245 190 210 223 221 198 205 214 218 254 160 187 245 258 273 255 238 218 215 212 220 231 239 220 227 232 236 241 241 243 249 252 255 251 248 245 243 253 259 261 262 262 263 267 272 277 281 284 288 293 296
185 175 176 195 196 197 201 207 210 218 215 215 203 182 183 182 182 185 187 196 202 206 225 238 230 237 247 232 200 223 228 228 208 194 199 240 257 248 258 267 222 192 201 218 228 239 212 215 250 245 249 245 209 254 248 243 231 230 238 245 250 255 260 261 262 263 267 273 280 284 288 292 295 297
180 187 185 177 199 197 193 197 203 204 210 219 225 196 191 187 179 179 194 206 192 203 225 232 224 235 251 260 228 230 243 214 212 236 221 240 249 255 277 289 333 158 190 211 237 262 198 181 243 252 253 248 215 226 237 236 241 239 239 244 250 255 259 260 260 263 270 279 284 288 292 295 298 299
171 175 179 189 180 199 189 170 169 179 180 184 169 166 176 195 209 208 196 190 200 202 218 229 232 230 250 268 240 245 223 239 224 222 223 219 216 236 241 250 269 57 160 199 234 266 253 191 240 260 258 246 226 227 235 241 242 245 245 246 250 254 257 259 263 268 277 283 287 291 295 298 299 300
176 170 172 183 195 187 173 158 154 147 155 162 168 165 178 202 223 235 239 230 213 181 219 234 250 232 259 265 259 207 206 162 212 164 221 224 223 235 245 245 275 38 139 241 248 266 259 184 235 248 257 244 240 238 240 245 248 249 249 250 250 253 256 262 267 276 284 287 292 295 297 299 300 302
176 174 173 183 179 176 167 156 163 175 169 168 154 146 153 178 227 243 244 263 238 217 235 232 245 293 166 254 266 246 157 162 206 184 243 210 225 227 237 302 311 11 170 225 314 276 238 204 235 256 275 237 250 246 244 250 254 252 250 248 248 253 261 267 275 283 289 293 296 298 299 300 301 303
174 174 174 171 157 158 162 169 179 177 176 156 140 126 128 160 20 0 348 290 294 275 259 247 263 309 263 272 274 213 207 224 238 221 277 238 243 255 305 278 182 260 194 212 208 278 63 68 226 257 283 300 266 250 252 252 252 252 251 250 254 260 267 274 280 287 293 298 299 298 298 299 301 303
151 145 154 159 152 156 164 187 186 179 154 141 136 125 116 85 30 333 334 331 331 309 270 257 251 257 241 237 254 247 233 265 281 53 77 88 79 312 294 285 320 270 101 188 223 272 306 109 284 282 312 290 269 261 248 251 259 260 261 261 264 269 276 282 287 292 297 298 297 297 297 298 301 303
146 151 163 158 152 155 167 179 185 175 152 136 136 133 130 109 88 260 353 339 342 295 231 233 235 239 251 266 281 299 290 272 131 107 330 304 292 293 294 300 306 301 352 250 204 280 294 315 299 299 281 265 267 274 292 323 286 283 280 275 275 279 278 280 290 299 296 296 296 298 299 300 303 307
162 170 171 165 157 163 166 179 182 170 148 144 145 139 133 128 125 161 342 23 14 36 47 41 43 37 31 26 26 18 17 16 124 115 296 322 107 311 308 296 314 305 272 308 128 219 260 324 282 294 264 246 262 307 347 333 302 289 284 287 294 293 284 290 293 292 293 294 296 299 302 302 307 309
158 169 181 177 173 170 162 176 175 166 145 150 156 154 137 140 154 183 170 155 128 87 51 27 19 28 27 28 31 23 25 27 27 50 52 112 342 304 301 299 313 312 316 49 193 242 271 340 324 337 326 321 124 150 261 286 292 302 301 320 325 350 5 326 303 292 294 296 299 300 302 306 309 306
175 181 176 184 186 179 173 176 176 170 160 160 159 146 149 145 155 166 159 176 130 99 85 60 39 45 21 22 26 26 26 27 33 43 50 53 28 277 284 276 262 268 278 91 181 248 296 188 300 36 328 314 304 321 215 304 211 255 286 303 302 313 319 307 298 296 294 295 297 299 303 304 305 300
164 170 181 167 188 178 174 175 179 177 174 162 153 165 160 176 155 136 131 152 117 101 87 70 44 29 22 26 22 27 28 25 20 23 42 55 58 238 266 279 271 268 274 261 192 179 278 81 288 296 286 245 282 299 283 244 241 268 228 256 270 291 287 279 277 279 282 291 294 299 300 299 298 295
172 169 166 163 186 174 165 168 175 175 176 162 148 175 165 151 148 141 124 118 99 95 79 82 56 29 25 19 19 13 10 14 355 3 355 7 2 262 248 261 278 289 286 352 296 236 279 289 301 306 300 286 286 290 298 297 295 202 9 195 246 261 250 267 271 266 267 265 280 286 288 293 297 301
160 137 152 161 169 163 157 162 163 166 162 150 165 178 164 164 142 121 121 118 111 101 89 72 55 34 29 25 21 3 13 3 350 337 356 348 336 319 311 293 276 271 291 310 321 298 285 286 295 291 289 294 291 294 288 291 306 116 266 201 248 246 227 241 257 263 265 267 269 285 291 293 294 299
151 149 154 157 163 156 152 149 148 134 127 147 162 154 148 137 129 125 124 118 114 108 89 74 63 48 41 248 288 0 340 350 336 348 7 355 14 335 322 322 301 284 277 284 292 286 278 280 288 286 286 287 285 287 293 294 299 308 313 306 249 223 231 220 253 260 261 258 263 275 280 288 299 304
148 146 148 149 148 146 140 128 119 117 122 126 120 115 118 123 123 129 132 128 131 118 99 94 91 124 119 326 288 313 347 342 64 46 29 45 66 98 291 275 271 281 291 287 281 266 251 264 277 287 287 282 277 279 285 292 302 304 312 315 310 316 238 237 237 255 267 262 255 261 265 283 292 295
138 143 142 138 132 121 111 105 111 115 116 105 100 103 106 115 124 133 135 134 132 127 129 135 136 115 146 139 79 99 101 353 2 43 359 350 340 43 343 340 316 306 281 273 285 279 254 254 254 271 280 280 279 282 284 290 292 299 300 298 301 306 299 192 257 251 245 257 264 265 277 271 271 275
138 130 127 128 126 123 119 113 118 115 116 102 89 89 84 109 123 131 134 137 133 136 142 147 141 137 110 140 143 54 13 357 355 152 236 281 311 13 338 314 296 307 310 319 282 252 263 254 261 241 259 280 285 283 294 297 296 301 298 294 296 290 303 288 266 243 242 275 265 281 276 269 264 243
128 126 121 115 112 110 104 103 90 95 99 105 112 107 114 113 119 121 121 122 127 132 140 139 132 134 134 143 124 224 267 274 272 191 221 169 301 292 143 322 303 312 308 314 314 336 241 248 241 257 246 261 274 289 296 292 290 297 301 302 297 293 294 295 298 302 268 223 292 296 294 289 288 283
112 113 116 126 131 136 132 134 135 139 131 110 112 116 116 122 113 114 124 133 139 143 141 144 144 141 141 145 168 232 276 282 256 179 190 259 177 291 255 290 295 300 308 309 311 312 322 301 244 243 258 276 280 291 297 297 291 290 296 299 303 297 296 305 305 301 0 294 297 301 298 298 277 280
139 142 140 152 152 151 154 152 154 152 148 144 129 118 120 121 116 114 121 134 142 146 148 147 148 149 148 169 190 233 243 273 260 196 195 247 199 231 294 300 302 295 287 288 295 299 308 306 341 309 210 240 251 244 246 271 280 293 291 296 295 294 302 309 306 282 277 293 301 302 301 306 296 278
150 150 154 160 158 157 153 153 155 153 145 145 135 139 132 121 121 122 127 146 137 137 141 158 159 163 169 186 202 207 234 242 292 342 282 180 217 245 281 289 299 303 303 304 302 303 309 298 298 304 301 297 294 282 224 213 240 270 290 292 277 295 305 314 309 313 319 298 296 292 298 300 295 317
161 163 152 159 162 158 155 154 155 154 147 145 143 143 135 137 141 136 145 160 144 154 152 160 164 165 176 180 201 231 270 296 298 301 303 298 278 282 287 278 279 288 296 294 290 297 307 301 308 310 311 314 316 318 335 226 202 208 256 276 295 294 297 310 319 321 307 305 287 274 287 301 310 341
156 164 158 155 155 157 153 156 157 152 145 145 149 152 141 144 155 148 157 148 146 163 169 160 160 145 150 149 151 197 136 66 340 317 299 289 285 267 262 274 283 288 282 283 283 296 296 300 306 310 310 314 315 319 315 324 260 249 186 261 286 279 278 287 289 292 265 252 282 258 263 284 297 318
163 160 158 151 152 153 153 154 148 148 151 154 153 145 147 139 136 143 162 154 162 156 162 156 153 139 128 134 127 98 52 347 312 286 277 282 266 276 285 283 286 293 291 295 293 285 284 295 301 304 308 310 315 314 319 327 327 342 69 247 263 285 243 265 284 290 299 257 247 271 272 270 285 319
156 155 155 150 150 148 148 152 154 156 153 151 150 150 144 142 139 137 144 144 143 138 131 128 133 143 144 148 129 141 171 277 283 269 266 278 281 258 271 293 298 301 304 301 308 303 294 284 298 305 303 298 303 307 315 313 308 306 299 297 286 282 279 266 274 293 278 294 286 279 263 257 275 282
150 147 144 139 143 145 145 146 146 143 140 135 124 119 119 122 123 123 115 114 107 103 116 117 120 125 135 156 164 185 213 228 240 269 271 267 264 270 278 297 297 298 293 299 302 307 311 303 310 302 301 299 301 313 300 279 276 254 265 288 292 283 280 243 256 263 291 277 263 295 290 315 307 4
140 137 139 145 138 138 137 135 132 126 123 116 111 104 99 105 99 107 113 110 120 120 109 94 81 78 70 54 39 44 239 295 285 287 292 299 303 298 302 305 301 297 297 296 300 304 309 321 298 307 308 299 310 307 302 307 304 309 319 319 333 327 324 314 244 218 231 158 212 265 310 316 323 328
137 134 130 133 137 135 133 130 125 120 110 110 108 111 105 106 113 115 106 93 82 81 82 73 60 57 51 41 34 15 29 329 313 305 304 303 289 289 294 290 285 290 293 293 299 302 311 316 319 326 310 321 318 321 308 305 303 307 312 311 297 317 324 338 325 236 192 159 181 242 279 303 248 285
134 135 133 133 125 120 114 120 115 105 110 105 105 113 120 121 115 100 81 80 70 70 71 71 61 64 42 27 29 23 20 317 297 293 288 283 285 280 283 283 286 288 289 293 300 311 313 314 310 318 317 313 304 311 297 298 298 301 307 311 316 306 309 330 337 319 222 208 208 198 198 242 299 329
130 124 119 123 119 117 115 107 106 98 111 115 122 120 118 118 106 94 92 92 92 91 80 73 57 53 46 27 29 21 4 335 312 303 302 310 311 305 299 297 298 295 298 296 302 306 309 310 315 349 322 311 315 304 295 299 295 300 299 302 289 306 307 326 333 335 334 269 242 224 222 215 226 253
121 122 120 118 113 107 106 107 116 119 116 114 107 106 106 109 116 114 108 106 100 88 81 73 68 47 32 13 3 355 323 321 317 315 312 308 299 294 291 289 288 292 291 295 299 299 308 313 306 275 301 298 302 295 294 290 289 294 291 293 295 297 297 338 343 345 333 288 12 347 230 222 271 305